カタログに戻る

STARLINK-3068

運用中通信VLEO
NORAD 49154·PAYLOAD·🇺🇸 United States

打ち上げ Sep 14, 2021 から Vandenberg Space Force Base

Loading…

次のパス (今後24時間)

TLE

最新Source: CelesTrak SupGP

元期: Sep 14, 2026, 21:49 UTC

1 49154C 21082AA  26257.90951389 -.00041046  00000+0 -35121-2 0  2579
2 49154  70.0013 158.7416 0002983 270.6544 179.3733 14.97546616    11

AllMySatでSTARLINK-3068をリアルタイム追跡

Download on the App Store